Total_Precipitation_Accumulation
0.07 0.08 0.07 0.08 0.08 0.04 0.05 0.08 0.07 0.06 0.05 0.07 0.06 0.06 0.06 0.06 0.04 0.04 0.04 0.05 0.03 0.04 0.04 0.01 0.02 0.02 0.01 0.01 0.01 0.00 0.00 0.01 0.00 0.00 0.00 0.00 0.00 0.00 0.00 0.00 0.00 0.00 0.00 0.00 0.00 0.00 0.00 0.00 0.00 0.00 0.00 0.00 0.00 0.00 0.00 0.00 0.00 0.00 0.00 0.00 0.00 0.00 0.00 0.00 0.00 0.00 0.00 0.00 0.00 0.00 0.00 0.00 0.00 0.00 0.00 0.00 0.00 0.01 0.00 0.02 0.02 0.03 0.09 0.08 0.12 0.16 0.10 0.17
0.09 0.09 0.08 0.07 0.05 0.07 0.07 0.06 0.07 0.06 0.05 0.04 0.05 0.05 0.05 0.07 0.06 0.05 0.04 0.04 0.05 0.03 0.02 0.06 0.02 0.01 0.02 0.00 0.00 0.00 0.00 0.00 0.00 0.00 0.00 0.00 0.00 0.00 0.00 0.00 0.00 0.00 0.00 0.00 0.00 0.00 0.00 0.00 0.00 0.00 0.00 0.00 0.00 0.00 0.00 0.00 0.00 0.00 0.00 0.00 0.00 0.00 0.00 0.00 0.00 0.00 0.00 0.00 0.00 0.00 0.00 0.00 0.00 0.01 0.00 0.01 0.00 0.00 0.01 0.06 0.04 0.15 0.21 0.13 0.16 0.14 0.18 0.20
0.07 0.07 0.10 0.06 0.06 0.07 0.06 0.06 0.06 0.04 0.05 0.06 0.06 0.06 0.04 0.06 0.05 0.04 0.04 0.05 0.05 0.03 0.03 0.02 0.04 0.01 0.00 0.01 0.00 0.01 0.01 0.00 0.00 0.00 0.00 0.00 0.00 0.00 0.00 0.00 0.00 0.00 0.00 0.00 0.00 0.00 0.00 0.00 0.00 0.00 0.00 0.00 0.00 0.00 0.00 0.00 0.00 0.00 0.00 0.00 0.00 0.00 0.00 0.00 0.00 0.00 0.00 0.00 0.00 0.00 0.00 0.00 0.00 0.00 0.00 0.03 0.01 0.00 0.01 0.08 0.08 0.14 0.35 0.15 0.21 0.20 0.18 0.36
0.07 0.06 0.06 0.06 0.06 0.06 0.06 0.07 0.05 0.04 0.06 0.05 0.04 0.05 0.06 0.05 0.03 0.04 0.05 0.05 0.02 0.04 0.04 0.02 0.01 0.02 0.01 0.01 0.03 0.00 0.00 0.00 0.00 0.00 0.00 0.00 0.00 0.00 0.00 0.00 0.00 0.00 0.00 0.00 0.00 0.00 0.00 0.00 0.00 0.00 0.00 0.00 0.00 0.00 0.00 0.00 0.00 0.00 0.00 0.00 0.00 0.00 0.00 0.00 0.00 0.00 0.00 0.00 0.00 0.00 0.00 0.00 0.00 0.00 0.00 0.00 0.02 0.01 0.10 0.00 0.03 0.12 0.23 0.21 0.25 0.23 0.23 0.33
0.07 0.07 0.08 0.05 0.04 0.05 0.06 0.04 0.04 0.06 0.05 0.05 0.06 0.06 0.09 0.09 0.06 0.06 0.04 0.03 0.06 0.04 0.03 0.02 0.02 0.01 0.01 0.03 0.01 0.01 0.00 0.00 0.00 0.00 0.00 0.00 0.00 0.00 0.00 0.00 0.00 0.00 0.00 0.00 0.00 0.00 0.00 0.00 0.00 0.00 0.00 0.00 0.00 0.00 0.00 0.00 0.00 0.00 0.00 0.00 0.00 0.00 0.00 0.00 0.00 0.00 0.00 0.00 0.00 0.00 0.00 0.00 0.00 0.00 0.00 0.01 0.02 0.24 0.04 0.01 0.02 0.42 0.82 0.19 0.31 0.20 0.28 0.36
0.07 0.07 0.10 0.06 0.05 0.06 0.06 0.05 0.05 0.05 0.06 0.05 0.06 0.06 0.10 0.07 0.06 0.05 0.04 0.03 0.04 0.03 0.02 0.02 0.03 0.02 0.01 0.01 0.01 0.00 0.00 0.00 0.00 0.00 0.00 0.00 0.00 0.00 0.00 0.00 0.00 0.00 0.00 0.00 0.00 0.00 0.00 0.00 0.00 0.00 0.00 0.00 0.00 0.00 0.00 0.00 0.00 0.00 0.00 0.00 0.00 0.00 0.00 0.00 0.00 0.00 0.00 0.00 0.00 0.00 0.00 0.00 0.00 0.00 0.00 0.00 0.04 0.05 0.01 0.01 0.01 0.09 0.43 0.31 0.24 0.17 0.29 0.67
0.07 0.06 0.07 0.06 0.06 0.06 0.07 0.07 0.06 0.06 0.06 0.07 0.05 0.05 0.05 0.06 0.05 0.05 0.05 0.04 0.03 0.03 0.01 0.01 0.01 0.02 0.02 0.01 0.00 0.02 0.01 0.00 0.00 0.00 0.00 0.00 0.00 0.00 0.00 0.00 0.00 0.00 0.00 0.00 0.00 0.00 0.00 0.00 0.00 0.00 0.00 0.00 0.00 0.00 0.00 0.00 0.00 0.00 0.00 0.00 0.00 0.00 0.00 0.00 0.00 0.00 0.00 0.00 0.00 0.00 0.00 0.00 0.00 0.00 0.00 0.00 0.00 0.00 0.01 0.02 0.05 0.15 0.32 0.20 0.16 0.41 0.31 0.38
0.08 0.08 0.05 0.06 0.06 0.05 0.06 0.06 0.05 0.05 0.05 0.08 0.06 0.04 0.06 0.06 0.09 0.07 0.05 0.04 0.04 0.02 0.03 0.02 0.01 0.01 0.02 0.01 0.01 0.02 0.02 0.00 0.00 0.00 0.00 0.00 0.00 0.00 0.00 0.00 0.00 0.00 0.00 0.00 0.00 0.00 0.00 0.00 0.00 0.00 0.00 0.00 0.00 0.00 0.00 0.00 0.00 0.00 0.00 0.00 0.00 0.00 0.00 0.00 0.00 0.00 0.00 0.00 0.00 0.00 0.00 0.00 0.00 0.00 0.00 0.00 0.00 0.00 0.01 0.02 0.07 0.15 0.29 0.14 0.12 0.26 0.36 0.51
0.06 0.05 0.05 0.06 0.06 0.06 0.06 0.07 0.06 0.05 0.05 0.06 0.07 0.06 0.08 0.09 0.08 0.05 0.05 0.05 0.02 0.02 0.01 0.02 0.01 0.03 0.05 0.09 0.08 0.08 0.01 0.00 0.00 0.00 0.00 0.00 0.00 0.00 0.00 0.00 0.00 0.00 0.00 0.00 0.00 0.00 0.00 0.00 0.00 0.00 0.00 0.00 0.00 0.00 0.00 0.00 0.00 0.00 0.00 0.00 0.00 0.00 0.00 0.00 0.00 0.00 0.00 0.00 0.00 0.00 0.00 0.00 0.00 0.00 0.00 0.01 0.01 0.01 0.01 0.02 0.06 0.20 0.19 0.19 0.19 0.22 1.05 0.73
0.06 0.05 0.06 0.06 0.07 0.07 0.06 0.07 0.07 0.07 0.06 0.09 0.08 0.09 0.08 0.06 0.05 0.06 0.03 0.03 0.03 0.03 0.01 0.01 0.02 0.04 0.09 0.08 0.05 0.06 0.00 0.00 0.00 0.00 0.00 0.00 0.00 0.00 0.00 0.00 0.00 0.00 0.00 0.00 0.00 0.00 0.00 0.00 0.00 0.00 0.00 0.00 0.00 0.00 0.00 0.00 0.00 0.00 0.00 0.00 0.00 0.00 0.00 0.00 0.00 0.00 0.00 0.00 0.00 0.00 0.00 0.00 0.00 0.00 0.01 0.05 0.01 0.03 0.02 0.05 0.17 0.20 0.31 0.10 0.30 1.18 1.27 1.14
0.07 0.06 0.05 0.07 0.07 0.05 0.07 0.08 0.10 0.06 0.09 0.07 0.11 0.10 0.07 0.04 0.05 0.04 0.03 0.03 0.05 0.03 0.02 0.01 0.04 0.04 0.12 0.08 0.07 0.02 0.00 0.00 0.00 0.00 0.00 0.00 0.00 0.00 0.00 0.00 0.00 0.00 0.00 0.00 0.00 0.00 0.00 0.00 0.00 0.00 0.00 0.00 0.00 0.00 0.00 0.00 0.00 0.00 0.00 0.00 0.00 0.00 0.00 0.00 0.00 0.00 0.00 0.00 0.00 0.00 0.00 0.00 0.00 0.00 0.01 0.03 0.05 0.02 0.02 0.10 0.11 0.19 0.34 0.56 0.89 0.75 0.66 1.33
0.06 0.06 0.05 0.06 0.07 0.09 0.07 0.06 0.08 0.06 0.07 0.13 0.09 0.05 0.06 0.05 0.05 0.05 0.05 0.05 0.05 0.04 0.03 0.02 0.03 0.23 0.12 0.17 0.10 0.01 0.00 0.00 0.00 0.00 0.00 0.00 0.00 0.00 0.00 0.00 0.00 0.00 0.00 0.00 0.00 0.00 0.00 0.00 0.00 0.00 0.00 0.00 0.00 0.00 0.00 0.00 0.00 0.00 0.00 0.00 0.00 0.00 0.00 0.00 0.00 0.00 0.00 0.00 0.00 0.00 0.00 0.00 0.00 0.00 0.00 0.02 0.02 0.06 0.05 0.08 0.22 0.16 0.25 0.19 0.31 0.62 0.83 1.63
0.04 0.08 0.06 0.08 0.06 0.07 0.05 0.06 0.12 0.10 0.08 0.06 0.05 0.06 0.06 0.06 0.05 0.05 0.04 0.03 0.04 0.05 0.04 0.05 0.08 0.20 0.36 0.26 0.01 0.00 0.00 0.00 0.00 0.00 0.00 0.00 0.00 0.00 0.00 0.00 0.00 0.00 0.00 0.00 0.00 0.00 0.00 0.00 0.00 0.00 0.00 0.00 0.00 0.00 0.00 0.00 0.00 0.00 0.00 0.00 0.00 0.00 0.00 0.00 0.00 0.00 0.00 0.00 0.00 0.00 0.00 0.00 0.00 0.00 0.03 0.05 0.05 0.09 0.10 0.14 0.27 0.44 0.35 0.25 0.48 0.74 0.82 1.09
0.05 0.05 0.06 0.07 0.06 0.06 0.08 0.06 0.06 0.07 0.07 0.09 0.07 0.08 0.06 0.05 0.06 0.04 0.06 0.05 0.06 0.06 0.07 0.04 0.14 0.14 0.32 0.08 0.00 0.00 0.00 0.00 0.00 0.00 0.00 0.00 0.00 0.00 0.00 0.00 0.00 0.00 0.00 0.00 0.00 0.00 0.00 0.00 0.00 0.00 0.00 0.00 0.00 0.00 0.00 0.00 0.00 0.00 0.00 0.00 0.00 0.00 0.00 0.00 0.00 0.00 0.00 0.00 0.00 0.00 0.00 0.00 0.00 0.00 0.06 0.17 0.13 0.08 0.09 0.26 0.56 0.73 0.61 0.92 0.88 1.78 1.60 1.37
0.06 0.05 0.06 0.05 0.06 0.06 0.10 0.06 0.08 0.07 0.07 0.06 0.06 0.06 0.03 0.02 0.03 0.04 0.05 0.10 0.05 0.04 0.03 0.08 0.06 0.24 0.27 0.02 0.00 0.00 0.00 0.00 0.00 0.00 0.00 0.00 0.00 0.00 0.00 0.00 0.00 0.00 0.00 0.00 0.00 0.00 0.00 0.00 0.00 0.00 0.00 0.00 0.00 0.00 0.00 0.00 0.00 0.00 0.00 0.00 0.00 0.00 0.00 0.00 0.00 0.00 0.00 0.00 0.00 0.00 0.00 0.00 0.00 0.08 0.07 0.22 0.52 0.34 0.12 0.21 0.62 0.90 1.23 1.01 1.02 1.38 1.31 1.70
0.07 0.11 0.07 0.06 0.07 0.09 0.08 0.10 0.05 0.08 0.04 0.08 0.05 0.03 0.01 0.01 0.04 0.03 0.04 0.06 0.06 0.09 0.06 0.09 0.06 0.08 0.11 0.06 0.00 0.00 0.00 0.00 0.00 0.00 0.00 0.00 0.00 0.00 0.00 0.00 0.00 0.00 0.00 0.00 0.00 0.00 0.00 0.00 0.00 0.00 0.00 0.00 0.00 0.00 0.00 0.00 0.00 0.00 0.00 0.00 0.00 0.00 0.00 0.00 0.00 0.00 0.00 0.00 0.00 0.00 0.00 0.01 0.01 0.07 0.12 1.63 1.54 0.75 0.29 0.59 0.96 0.86 0.95 1.56 1.08 1.02 1.24 1.42
0.06 0.05 0.06 0.07 0.06 0.08 0.06 0.06 0.07 0.08 0.11 0.05 0.04 0.01 0.01 0.00 0.01 0.02 0.02 0.04 0.02 0.03 0.11 0.06 0.03 0.12 0.21 0.00 0.00 0.00 0.00 0.00 0.00 0.00 0.00 0.00 0.00 0.00 0.00 0.00 0.00 0.00 0.00 0.00 0.00 0.00 0.00 0.00 0.00 0.00 0.00 0.00 0.00 0.00 0.00 0.00 0.00 0.00 0.00 0.00 0.01 0.00 0.00 0.00 0.00 0.00 0.00 0.00 0.00 0.00 0.00 0.00 0.01 0.04 0.15 0.37 0.52 0.72 0.38 0.59 0.89 1.60 2.00 2.14 1.33 1.13 1.62 2.38
0.07 0.08 0.09 0.08 0.08 0.07 0.06 0.08 0.09 0.09 0.06 0.05 0.09 0.02 0.02 0.00 0.00 0.00 0.01 0.01 0.02 0.02 0.05 0.08 0.09 0.33 0.05 0.00 0.00 0.00 0.00 0.00 0.00 0.00 0.00 0.00 0.00 0.00 0.00 0.00 0.00 0.00 0.00 0.00 0.00 0.00 0.00 0.00 0.00 0.00 0.00 0.00 0.00 0.00 0.00 0.00 0.00 0.00 0.00 0.00 0.00 0.00 0.00 0.00 0.00 0.00 0.00 0.00 0.00 0.00 0.00 0.00 0.00 0.01 0.02 0.14 0.46 0.40 0.33 0.84 1.36 1.85 1.84 2.75 2.97 1.79 1.89 0.63
0.09 0.11 0.06 0.07 0.06 0.08 0.06 0.12 0.13 0.10 0.08 0.06 0.02 0.01 0.00 0.00 0.01 0.01 0.03 0.09 0.13 0.24 0.16 0.15 0.26 0.05 0.01 0.00 0.00 0.00 0.00 0.00 0.00 0.00 0.00 0.00 0.00 0.00 0.00 0.00 0.00 0.00 0.00 0.00 0.00 0.00 0.00 0.00 0.00 0.00 0.00 0.00 0.00 0.00 0.00 0.00 0.00 0.00 0.00 0.00 0.00 0.01 0.00 0.00 0.00 0.00 0.00 0.00 0.00 0.00 0.00 0.00 0.01 0.01 0.05 0.08 0.13 0.18 0.22 0.88 2.04 1.92 1.27 1.90 1.88 1.05 0.70 0.29
0.10 0.09 0.08 0.08 0.08 0.08 0.10 0.08 0.08 0.09 0.10 0.08 0.05 0.02 0.04 0.10 0.19 0.11 0.07 0.10 0.15 0.02 0.00 0.00 0.00 0.00 0.00 0.00 0.00 0.00 0.00 0.00 0.00 0.00 0.00 0.00 0.00 0.00 0.00 0.00 0.00 0.00 0.00 0.00 0.00 0.00 0.00 0.00 0.00 0.00 0.00 0.00 0.00 0.00 0.00 0.00 0.00 0.00 0.00 0.00 0.00 0.00 0.00 0.00 0.00 0.00 0.00 0.00 0.00 0.00 0.00 0.00 0.00 0.01 0.11 0.02 0.10 0.13 0.26 0.95 1.63 2.35 2.46 1.29 0.97 0.90 0.47 0.60
0.09 0.12 0.12 0.08 0.12 0.09 0.06 0.05 0.11 0.05 0.16 0.15 0.08 0.05 0.05 0.02 0.07 0.11 0.24 0.11 0.01 0.00 0.00 0.00 0.01 0.00 0.00 0.00 0.00 0.00 0.00 0.00 0.00 0.00 0.00 0.00 0.00 0.00 0.00 0.00 0.00 0.00 0.00 0.00 0.00 0.00 0.00 0.00 0.00 0.00 0.00 0.00 0.00 0.00 0.00 0.00 0.00 0.00 0.00 0.00 0.00 0.00 0.00 0.00 0.00 0.00 0.00 0.00 0.00 0.00 0.01 0.00 0.01 0.00 0.07 0.06 0.05 0.18 0.20 0.37 1.13 1.23 1.17 0.85 0.99 0.99 0.75 0.84
0.10 0.12 0.16 0.14 0.10 0.11 0.09 0.10 0.08 0.16 0.10 0.10 0.09 0.09 0.04 0.05 0.05 0.06 0.10 0.14 0.02 0.02 0.00 0.00 0.00 0.00 0.00 0.00 0.00 0.00 0.00 0.00 0.00 0.00 0.00 0.00 0.00 0.00 0.00 0.00 0.00 0.00 0.00 0.00 0.03 0.00 0.00 0.00 0.00 0.00 0.00 0.00 0.00 0.00 0.00 0.00 0.00 0.00 0.00 0.00 0.00 0.01 0.00 0.00 0.00 0.00 0.00 0.00 0.00 0.00 0.01 0.00 0.02 0.02 0.04 0.09 0.08 0.08 0.15 0.19 0.77 0.62 1.28 1.31 1.35 1.05 0.84 1.01
0.12 0.12 0.12 0.10 0.15 0.06 0.18 0.06 0.16 0.15 0.19 0.11 0.09 0.04 0.04 0.03 0.05 0.32 0.35 0.21 0.20 0.01 0.02 0.00 0.00 0.00 0.00 0.00 0.00 0.00 0.00 0.00 0.00 0.00 0.00 0.00 0.00 0.00 0.00 0.01 0.00 0.00 0.00 0.00 0.00 0.00 0.00 0.00 0.00 0.00 0.00 0.00 0.00 0.00 0.00 0.00 0.00 0.00 0.00 0.00 0.00 0.00 0.00 0.03 0.00 0.00 0.00 0.00 0.00 0.00 0.03 0.02 0.01 0.03 0.17 0.09 0.05 0.31 0.83 1.83 1.54 0.54 0.47 0.49 0.85 0.74 0.53 0.71
0.11 0.11 0.10 0.20 0.15 0.17 0.10 0.16 0.09 0.07 0.10 0.07 0.05 0.03 0.07 0.04 0.04 0.15 0.32 0.37 0.05 0.01 0.00 0.00 0.00 0.00 0.00 0.00 0.00 0.00 0.00 0.00 0.00 0.00 0.00 0.00 0.00 0.00 0.00 0.00 0.02 0.00 0.00 0.00 0.00 0.00 0.00 0.00 0.00 0.00 0.00 0.00 0.00 0.00 0.00 0.00 0.00 0.00 0.00 0.00 0.00 0.00 0.00 0.00 0.06 0.00 0.00 0.00 0.00 0.00 0.02 0.06 0.02 0.08 0.09 0.08 0.29 0.45 0.90 2.00 1.34 1.53 0.94 0.36 0.53 0.50 0.40 0.45
0.11 0.11 0.15 0.14 0.32 0.11 0.10 0.12 0.08 0.06 0.06 0.35 0.08 0.13 0.19 0.10 0.10 0.18 0.28 0.19 0.07 0.01 0.00 0.00 0.00 0.00 0.00 0.00 0.00 0.00 0.00 0.00 0.00 0.00 0.00 0.00 0.00 0.00 0.00 0.00 0.01 0.00 0.00 0.00 0.00 0.00 0.00 0.01 0.00 0.00 0.00 0.00 0.00 0.00 0.00 0.00 0.00 0.00 0.00 0.00 0.00 0.00 0.00 0.00 0.00 0.00 0.00 0.02 0.00 0.01 0.02 0.07 0.09 0.17 0.08 0.07 0.06 0.26 0.51 1.20 0.63 0.83 1.41 1.57 0.57 0.44 0.90 0.66
0.13 0.08 0.19 0.16 0.17 0.27 0.27 0.11 0.13 0.21 0.10 0.29 0.18 0.38 0.27 0.17 0.24 0.67 0.21 0.51 0.05 0.06 0.01 0.01 0.00 0.00 0.00 0.00 0.00 0.00 0.00 0.00 0.00 0.00 0.00 0.00 0.00 0.00 0.00 0.02 0.00 0.01 0.00 0.00 0.00 0.00 0.00 0.00 0.00 0.00 0.00 0.00 0.00 0.00 0.00 0.00 0.00 0.00 0.03 0.00 0.00 0.00 0.00 0.00 0.00 0.00 0.00 0.02 0.04 0.00 0.01 0.08 0.12 0.11 0.08 0.05 0.05 0.07 0.24 0.57 0.17 0.52 0.55 0.65 1.02 1.17 0.43 0.40
0.11 0.13 0.17 0.18 0.14 0.48 0.26 0.23 0.08 0.07 0.14 0.14 0.40 0.25 0.12 0.39 0.43 0.42 0.43 0.21 0.14 0.17 0.02 0.20 0.00 0.01 0.00 0.00 0.00 0.00 0.01 0.00 0.00 0.00 0.00 0.00 0.00 0.00 0.01 0.00 0.00 0.00 0.00 0.04 0.00 0.00 0.00 0.00 0.00 0.00 0.00 0.00 0.00 0.00 0.00 0.00 0.00 0.02 0.01 0.00 0.00 0.01 0.00 0.00 0.00 0.00 0.01 0.00 0.01 0.00 0.01 0.07 0.12 0.17 0.07 0.02 0.03 0.11 0.11 0.15 0.33 0.44 0.85 0.54 0.43 0.37 0.41 0.46
0.14 0.15 0.14 0.16 0.15 0.76 0.52 0.25 0.24 0.28 0.26 0.32 0.16 0.18 0.27 0.15 0.41 0.70 0.35 0.30 0.18 0.12 0.22 0.01 0.05 0.00 0.00 0.00 0.00 0.00 0.00 0.00 0.03 0.00 0.00 0.00 0.00 0.00 0.00 0.01 0.00 0.00 0.01 0.00 0.02 0.00 0.00 0.00 0.00 0.00 0.00 0.00 0.00 0.00 0.00 0.00 0.00 0.01 0.00 0.00 0.00 0.00 0.02 0.00 0.00 0.01 0.05 0.01 0.04 0.00 0.01 0.03 0.10 0.11 0.05 0.05 0.13 0.18 0.18 0.16 0.28 0.35 0.51 1.04 0.78 0.52 0.39 0.42
0.11 0.17 0.13 0.13 0.13 0.37 0.25 0.30 0.20 0.14 0.62 0.10 0.40 0.12 0.30 0.55 0.39 0.89 0.73 0.34 0.72 0.35 0.05 0.59 0.12 0.05 0.02 0.00 0.00 0.00 0.00 0.00 0.01 0.01 0.00 0.00 0.00 0.01 0.01 0.02 0.01 0.00 0.02 0.00 0.01 0.01 0.00 0.00 0.00 0.00 0.00 0.00 0.00 0.00 0.00 0.00 0.01 0.00 0.00 0.00 0.00 0.00 0.00 0.00 0.02 0.00 0.09 0.00 0.04 0.05 0.10 0.02 0.12 0.17 0.20 0.21 0.12 0.25 0.23 0.30 0.31 0.18 0.26 0.35 0.36 0.60 0.45 0.54
0.12 0.10 0.10 0.14 0.26 0.22 0.60 0.35 0.33 0.21 0.26 0.41 0.36 0.27 0.23 0.46 1.25 0.63 0.83 0.30 0.67 0.68 0.34 0.34 0.16 0.21 0.04 0.02 0.00 0.00 0.00 0.00 0.01 0.00 0.00 0.00 0.00 0.00 0.00 0.00 0.01 0.01 0.02 0.00 0.05 0.02 0.00 0.00 0.00 0.00 0.00 0.00 0.00 0.00 0.00 0.00 0.00 0.00 0.00 0.00 0.00 0.00 0.03 0.01 0.00 0.05 0.06 0.03 0.03 0.03 0.02 0.01 0.18 0.18 0.12 0.26 0.23 0.10 0.24 0.22 0.31 0.17 0.14 0.30 0.26 0.64 0.43 0.60
0.17 0.23 0.22 0.51 0.36 0.22 0.23 0.29 0.25 0.13 0.40 0.60 0.27 0.33 0.56 0.97 0.98 0.74 0.41 0.25 0.33 0.74 0.69 0.33 0.18 0.13 0.17 0.06 0.02 0.08 0.01 0.01 0.02 0.01 0.01 0.00 0.01 0.00 0.04 0.05 0.03 0.06 0.03 0.01 0.04 0.00 0.01 0.01 0.00 0.00 0.00 0.00 0.00 0.00 0.00 0.00 0.00 0.00 0.00 0.02 0.00 0.02 0.00 0.01 0.05 0.04 0.09 0.01 0.03 0.03 0.01 0.02 0.14 0.27 0.19 0.17 0.10 0.19 0.11 0.18 0.20 0.24 0.23 0.20 0.36 0.53 0.67 0.67
0.14 0.16 0.37 0.32 0.09 0.46 0.28 0.26 0.49 0.33 0.51 0.40 0.47 0.47 0.84 1.09 0.68 0.68 0.33 0.48 0.92 0.95 0.99 0.58 0.63 0.29 0.17 0.11 0.05 0.02 0.01 0.01 0.02 0.02 0.02 0.00 0.01 0.00 0.02 0.01 0.02 0.03 0.03 0.03 0.06 0.02 0.01 0.02 0.00 0.00 0.00 0.00 0.00 0.00 0.00 0.00 0.00 0.00 0.00 0.02 0.21 0.19 0.02 0.10 0.05 0.03 0.00 0.03 0.08 0.00 0.01 0.03 0.02 0.21 0.41 0.20 0.11 0.16 0.15 0.12 0.13 0.14 0.17 0.21 0.31 0.38 0.60 0.63
0.08 0.08 0.29 0.16 0.45 0.38 0.24 0.57 0.31 0.34 0.37 0.42 0.53 0.67 0.92 1.17 0.68 0.17 0.40 0.43 1.78 0.86 0.81 0.94 0.63 0.22 0.31 0.15 0.06 0.02 0.01 0.05 0.05 0.01 0.01 0.04 0.03 0.01 0.01 0.02 0.01 0.02 0.05 0.07 0.03 0.01 0.01 0.01 0.00 0.00 0.00 0.00 0.00 0.00 0.02 0.01 0.00 0.00 0.03 0.08 0.08 0.17 0.07 0.02 0.07 0.02 0.06 0.02 0.02 0.05 0.02 0.05 0.23 0.21 0.25 0.44 0.19 0.16 0.13 0.38 0.33 0.13 0.14 0.15 0.22 0.42 0.41 0.65
0.07 0.13 0.15 0.14 0.18 0.08 0.11 0.30 0.23 0.28 0.22 0.45 0.68 0.74 1.71 1.01 0.58 0.59 0.43 0.77 1.63 0.86 0.75 0.83 0.35 0.19 0.10 0.21 0.08 0.16 0.04 0.03 0.02 0.02 0.01 0.04 0.04 0.06 0.04 0.01 0.01 0.04 0.00 0.02 0.03 0.02 0.07 0.11 0.01 0.00 0.01 0.00 0.00 0.00 0.01 0.02 0.01 0.01 0.00 0.00 0.08 0.11 0.07 0.02 0.05 0.05 0.03 0.18 0.07 0.05 0.01 0.09 0.15 0.67 0.39 0.47 0.30 0.14 0.11 0.25 0.48 0.49 0.21 0.25 0.25 0.27 0.74 1.28
0.11 0.11 0.07 0.17 0.16 0.14 0.14 0.14 0.54 0.35 0.25 0.50 0.69 0.94 0.84 0.56 0.66 0.60 0.69 0.59 1.06 1.04 0.69 0.45 0.38 0.13 0.15 0.05 0.23 0.09 0.02 0.20 0.03 0.04 0.04 0.03 0.09 0.04 0.02 0.02 0.01 0.00 0.05 0.02 0.07 0.01 0.01 0.02 0.01 0.00 0.00 0.00 0.00 0.00 0.00 0.00 0.01 0.01 0.00 0.00 0.03 0.02 0.00 0.10 0.24 0.03 0.15 0.08 0.06 0.05 0.06 0.36 0.92 0.98 0.57 0.27 0.19 0.07 0.17 0.31 0.29 0.39 0.77 0.66 0.72 0.70 0.55 0.91
0.09 0.46 0.05 0.18 0.17 0.33 0.09 0.20 0.45 0.54 0.29 0.57 0.98 0.90 0.65 0.66 1.09 0.79 1.14 0.76 1.73 1.45 0.70 0.37 0.42 0.37 0.18 0.20 0.03 0.15 0.04 0.21 0.08 0.09 0.06 0.01 0.02 0.06 0.00 0.02 0.02 0.00 0.05 0.01 0.12 0.04 0.01 0.12 0.00 0.01 0.00 0.00 0.00 0.00 0.00 0.00 0.13 0.18 0.00 0.05 0.02 0.01 0.02 0.04 0.00 0.01 0.00 0.00 0.04 0.01 0.12 0.32 0.32 1.35 0.57 0.62 0.27 0.26 0.27 0.36 0.21 0.39 0.59 1.00 1.27 0.77 0.76 1.07
0.43 0.05 0.25 0.05 0.08 0.08 0.16 0.62 0.42 0.23 0.32 0.65 1.05 0.84 0.34 0.56 0.48 0.74 0.91 0.96 1.51 1.46 0.98 1.24 0.61 0.60 0.26 0.23 0.12 0.06 0.16 0.09 0.24 0.08 0.22 0.03 0.06 0.02 0.01 0.02 0.00 0.00 0.00 0.02 0.07 0.07 0.06 0.23 0.01 0.02 0.00 0.00 0.00 0.00 0.00 0.00 0.00 0.00 0.02 0.03 0.00 0.00 0.02 0.02 0.12 0.04 0.01 0.02 0.13 0.03 0.09 0.56 0.10 1.20 1.17 0.74 0.55 1.05 0.95 0.56 0.22 0.45 0.72 0.68 0.81 1.59 1.47 1.90
0.37 0.20 0.09 0.11 0.06 0.02 0.08 0.35 0.12 0.24 0.41 0.72 0.82 0.61 0.41 0.65 0.63 0.74 0.74 0.94 1.10 1.20 1.51 1.30 0.88 0.76 0.23 0.13 0.16 0.13 0.19 0.19 0.47 0.35 0.24 0.02 0.25 0.01 0.02 0.02 0.01 0.00 0.00 0.00 0.03 0.08 0.01 0.09 0.03 0.00 0.00 0.00 0.00 0.00 0.00 0.00 0.00 0.00 0.07 0.00 0.02 0.06 0.05 0.03 0.00 0.03 0.02 0.01 0.09 0.08 0.12 0.11 0.15 0.58 0.57 1.15 0.67 1.00 1.06 0.77 0.36 0.30 0.37 0.49 0.86 1.03 1.38 2.26
0.24 0.22 0.29 0.09 0.03 0.18 0.04 0.06 0.08 0.33 0.77 0.75 0.49 0.88 0.37 0.48 0.49 0.62 0.78 0.93 0.93 1.15 0.90 0.78 1.15 0.66 0.86 0.21 0.22 0.12 0.10 0.33 0.10 0.23 0.18 0.22 0.28 0.03 0.12 0.02 0.04 0.00 0.00 0.01 0.01 0.04 0.00 0.02 0.07 0.00 0.00 0.02 0.00 0.00 0.02 0.00 0.00 0.00 0.00 0.00 0.00 0.00 0.05 0.08 0.02 0.20 0.01 0.18 0.04 0.22 0.12 0.28 0.16 0.43 0.23 0.39 0.24 0.34 0.32 0.44 0.42 0.42 0.40 0.60 1.28 0.96 0.93 1.36
0.35 0.45 0.48 0.15 0.03 0.06 0.05 0.04 0.20 0.46 0.75 0.76 0.42 0.49 0.39 0.59 0.33 0.58 0.60 0.87 1.00 0.90 0.63 0.70 0.60 0.89 0.22 0.38 0.16 0.19 0.22 0.16 0.10 0.24 0.12 0.40 0.13 0.05 0.10 0.00 0.09 0.00 0.00 0.00 0.01 0.00 0.03 0.02 0.11 0.06 0.00 0.00 0.04 0.00 0.01 0.01 0.04 0.00 0.00 0.00 0.01 0.01 0.03 0.01 0.10 0.03 0.19 0.13 0.09 0.12 0.16 0.49 0.49 0.19 0.14 0.27 0.30 0.36 0.56 0.71 0.79 0.71 0.82 0.94 1.10 1.45 1.37 1.49
0.21 0.62 0.77 0.48 0.32 0.04 0.14 0.19 0.34 0.45 0.39 0.37 0.49 0.67 0.56 0.61 0.46 0.33 0.57 0.50 0.75 0.55 0.64 0.64 0.49 0.63 0.79 0.23 0.22 0.15 0.21 0.12 0.15 0.29 0.08 0.12 0.06 0.24 0.00 0.05 0.01 0.07 0.00 0.02 0.01 0.04 0.01 0.00 0.03 0.01 0.03 0.01 0.01 0.00 0.01 0.00 0.00 0.00 0.01 0.05 0.05 0.09 0.16 0.10 0.10 0.00 0.08 0.04 0.11 0.10 0.19 0.57 0.30 0.24 0.32 0.36 0.50 0.51 0.57 0.61 0.82 1.04 1.17 1.03 1.50 1.37 1.45 1.61
0.60 0.68 0.99 0.80 0.44 0.08 0.12 0.46 0.28 0.21 0.30 0.42 0.65 0.91 0.87 0.36 0.29 0.25 0.33 0.40 0.64 0.81 0.52 0.60 0.45 0.63 0.53 0.66 0.36 0.29 0.20 0.08 0.09 0.09 0.07 0.28 0.36 0.21 0.17 0.00 0.01 0.04 0.07 0.04 0.01 0.04 0.03 0.02 0.07 0.01 0.11 0.07 0.02 0.02 0.00 0.00 0.00 0.00 0.00 0.02 0.00 0.04 0.01 0.14 0.19 0.27 0.09 0.07 0.04 0.23 0.10 0.52 0.42 0.53 0.60 0.44 0.54 0.49 0.67 1.04 0.80 0.58 0.77 0.97 0.81 0.89 0.98 0.74
0.41 0.97 1.82 0.93 0.53 0.20 0.25 0.25 0.21 0.23 0.35 0.29 0.38 0.62 0.68 0.50 0.26 0.16 0.20 0.32 0.60 0.40 0.53 0.68 0.57 0.57 0.52 0.48 0.23 0.21 0.06 0.12 0.05 0.24 0.20 0.19 0.40 0.16 0.04 0.01 0.01 0.03 0.00 0.09 0.02 0.04 0.00 0.01 0.01 0.04 0.15 0.03 0.02 0.00 0.00 0.00 0.00 0.00 0.00 0.00 0.00 0.06 0.09 0.09 0.13 0.21 0.13 0.12 0.07 0.18 0.07 0.90 0.32 0.56 0.99 0.61 0.45 0.49 0.48 0.62 0.62 0.78 0.74 0.55 0.74 0.51 1.16 1.14
0.66 1.94 1.10 0.98 0.52 0.36 0.48 0.38 0.24 0.11 0.19 0.18 0.29 0.47 0.63 0.49 0.34 0.26 0.19 0.22 0.53 0.68 0.76 0.70 0.72 0.39 0.46 0.28 0.19 0.36 0.12 0.15 0.04 0.12 0.19 0.08 0.28 0.04 0.01 0.02 0.01 0.04 0.08 0.41 0.09 0.09 0.08 0.02 0.01 0.13 0.07 0.18 0.15 0.04 0.01 0.00 0.00 0.01 0.02 0.01 0.00 0.01 0.04 0.10 0.08 0.14 0.01 0.05 0.19 0.15 0.22 0.54 0.54 0.71 0.54 0.48 0.43 0.43 0.69 0.56 0.46 0.74 0.70 0.53 0.41 0.55 0.58 0.64
0.89 1.45 1.40 1.11 0.57 0.44 0.50 0.60 0.30 0.18 0.23 0.20 0.30 0.39 0.59 0.58 0.37 0.25 0.23 0.23 0.32 0.44 0.62 0.70 0.57 0.26 0.33 0.28 0.10 0.36 0.12 0.29 0.13 0.18 0.19 0.24 0.31 0.01 0.01 0.02 0.01 0.13 0.10 0.03 0.05 0.03 0.05 0.08 0.02 0.09 0.24 0.21 0.23 0.23 0.21 0.12 0.05 0.02 0.02 0.01 0.05 0.02 0.08 0.15 0.05 0.06 0.05 0.07 0.12 0.10 0.59 0.52 0.71 0.64 0.61 0.33 0.33 0.48 0.48 0.49 0.56 1.06 1.13 0.72 0.72 0.99 0.78 0.83
1.31 1.64 1.08 1.14 1.43 0.98 0.27 0.35 0.30 0.41 0.20 0.30 0.26 0.31 0.39 0.65 0.38 0.39 0.27 0.28 0.20 0.23 0.54 0.96 0.51 0.38 0.44 0.76 0.16 0.55 0.29 0.11 0.22 0.12 0.22 0.32 0.19 0.07 0.03 0.01 0.04 0.04 0.04 0.02 0.08 0.10 0.28 0.05 0.10 0.10 0.28 0.47 0.27 0.24 0.14 0.04 0.03 0.06 0.07 0.05 0.06 0.00 0.03 0.07 0.12 0.15 0.12 0.15 0.11 0.10 0.17 0.65 0.77 0.57 0.43 0.49 0.31 0.57 0.62 0.57 0.41 0.37 0.48 0.49 0.58 0.61 0.72 0.59
1.02 1.34 1.15 0.69 0.56 0.85 0.63 0.31 0.27 0.25 0.22 0.30 0.61 0.39 0.53 0.50 0.48 0.41 0.17 0.46 0.18 0.22 0.21 0.29 0.19 0.52 0.46 0.24 0.11 0.25 0.26 0.19 0.09 0.11 0.32 0.38 0.26 0.28 0.02 0.16 0.05 0.01 0.01 0.03 0.08 0.21 0.60 0.36 0.17 0.05 0.22 0.11 0.03 0.14 0.03 0.04 0.12 0.11 0.13 0.06 0.02 0.05 0.04 0.08 0.03 0.13 0.26 0.16 0.26 0.23 0.15 0.19 0.45 0.34 0.29 0.42 0.47 0.54 0.59 0.33 0.32 0.46 0.59 0.59 0.51 0.44 0.57 0.87
1.23 1.20 1.08 0.96 0.77 0.51 0.44 0.75 0.33 0.42 0.27 0.28 0.66 0.33 0.44 0.64 0.52 0.70 0.36 0.24 0.24 0.09 0.32 0.17 0.29 0.36 0.40 0.18 0.18 0.23 0.44 0.29 0.32 0.26 0.23 0.16 0.11 0.35 0.52 0.21 0.29 0.09 0.05 0.08 0.03 0.05 0.22 0.23 0.36 0.32 0.24 0.23 0.11 0.03 0.09 0.05 0.09 0.13 0.11 0.18 0.16 0.11 0.07 0.13 0.10 0.12 0.17 0.11 0.46 0.43 0.50 0.15 0.30 0.32 0.35 0.28 0.20 0.24 0.25 0.31 0.29 0.50 0.45 0.53 0.53 0.68 0.67 0.52
1.67 1.24 1.24 0.64 0.48 0.53 0.28 0.36 0.29 0.34 0.60 0.44 0.40 0.28 0.45 0.44 0.70 0.70 0.76 0.88 0.62 0.43 0.53 0.40 0.30 0.23 0.38 0.32 0.20 0.39 0.28 0.37 0.20 0.40 0.29 0.22 0.33 0.31 0.50 0.41 0.24 0.13 0.04 0.19 0.06 0.10 0.10 0.36 0.42 0.38 0.39 0.49 0.22 0.15 0.11 0.20 0.17 0.10 0.03 0.16 0.19 0.20 0.20 0.08 0.06 0.12 0.17 0.12 0.12 0.11 0.14 0.21 0.40 0.45 0.31 0.37 0.35 0.39 0.41 0.19 0.28 0.52 0.57 0.46 0.62 0.39 0.31 0.34
1.54 1.94 1.52 0.47 0.61 0.53 0.36 0.65 0.60 0.48 0.43 0.22 0.34 0.30 0.41 0.53 0.62 1.11 0.65 0.72 0.81 0.68 0.71 0.65 0.37 0.25 0.29 0.60 0.39 0.47 1.29 0.53 0.52 0.27 0.21 0.27 0.45 0.23 0.36 0.56 0.79 0.13 0.07 0.18 0.11 0.23 0.31 0.62 0.14 0.38 0.37 0.31 0.46 0.26 0.22 0.37 0.14 0.17 0.02 0.04 0.04 0.12 0.05 0.07 0.12 0.08 0.07 0.17 0.13 0.02 0.02 0.17 0.34 0.21 0.28 0.38 0.26 0.22 0.18 0.23 0.21 0.24 0.34 0.54 0.37 0.51 0.54 0.35
1.36 1.41 1.36 0.89 0.54 0.44 0.43 0.56 0.48 0.54 0.63 0.53 0.33 0.44 0.34 0.42 0.63 0.87 1.19 0.51 0.65 0.80 0.69 0.72 0.50 0.46 0.29 0.30 0.26 0.48 0.47 0.41 0.23 0.30 0.65 0.24 0.33 0.31 0.18 0.44 0.06 0.35 0.20 0.38 0.19 0.54 0.14 1.01 0.39 0.77 0.36 0.51 0.45 0.50 0.39 0.49 0.32 0.33 0.21 0.09 0.06 0.22 0.18 0.08 0.18 0.26 0.21 0.28 0.28 0.24 0.04 0.16 0.47 0.21 0.26 0.24 0.22 0.18 0.16 0.19 0.21 0.50 0.30 0.26 0.35 0.24 0.34 0.54
0.87 0.96 0.79 0.98 0.39 0.06 0.35 0.38 0.64 0.43 0.51 0.60 0.73 0.56 0.43 0.60 0.50 0.71 0.88 0.32 0.71 0.41 0.38 0.56 0.44 0.75 0.68 0.55 0.50 0.58 0.37 0.66 0.41 0.21 0.14 0.25 0.27 0.54 0.07 0.34 0.26 0.43 0.34 0.10 0.28 0.37 0.44 0.20 0.35 0.38 0.34 0.47 0.69 0.57 0.59 0.39 0.44 0.53 0.37 0.18 0.15 0.22 0.20 0.12 0.12 0.13 0.15 0.32 0.72 0.46 0.24 0.15 0.23 0.18 0.21 0.26 0.20 0.22 0.19 0.19 0.19 0.17 0.17 0.11 0.12 0.16 0.24 0.28